User: anonymous
Location: Mount Tamalpais State Park
(37.9108°N, 122.6128°W)
Time: 07:45:43
(UTC-07:00)
Language:

Cosmos 1814 Rocket - Orbit

View from above orbital plane
View from above orbital plane
View from above satellite
View from above satellite

Ground track
Ground track

The orbit data is extracted from the following two-line orbital elements,

1 17304U 87006B   14113.11042815  .00000298  00000-0  10808-3 0  1067
2 17304 074.0619 045.9854 0029753 175.2365 284.2609 14.37303301427902
Epoch (UTC): 23 April 2014 02:39:00
Eccentricity: 0.0029753
inclination: 74.0619°
perigee height: 746 km
apogee height: 788 km
right ascension of ascending node: 45.9854°
argument of perigee: 175.2365°
revolutions per day: 14.37303301
mean anomaly at epoch: 284.2609°
orbit number at epoch: 42790

The dashed part of the orbit path shows where the satellite is in the earth's shadow,  

DLR